Location: Chuathbaluk
(61.5726°N, 159.2454°W)
Time: 05:01:26
(UTC+00:00)

Transit 2A - Pass Details

Date: 04 December 2020
Orbit: 599 x 960 km, 66.7° (Epoch: 26 January)

Event Time Altitude Azimuth Distance (km) Brightness Sun altitude
Rises 02:37:42 0° 187° (S) 3,607 10.1 -7.5°
Reaches altitude 10° 02:40:35 10° 178° (S) 2,638 9.2 -7.8°
Maximum altitude 02:45:49 30° 119° (ESE) 1,547 7.3 -8.3°
Enters shadow 02:50:35 11° 62° (ENE) 2,421 7.9 -8.8°
Drops below altitude 10° 02:50:46 10° 61° (ENE) 2,481 - -8.8°
Sets 02:53:24 0° 51° (NE) 3,360 - -9.1°
